Find Starlink 31635

NORAD ID: 59511 Int'l Des: 2024-073 Owner: SPXS Country: US Constellation: starlink operational
LEOCIRCULAR

Current View

Loading 3D Globe...

About Starlink 31635

Starlink 31635 (NORAD 59511) is a starlink constellation satellite (v2 mini) launched Apr 17, 2024 by SPXS of US. It operates in LEO, CIRCULAR orbit with a mass of 730.00 kg.

About Starlink 31635

Description loading...

Upcoming Passes

Passes for default location (London). Set your location on the main map for personalized predictions.

Altitude History

Loading altitude history...

Two-Line Element Set

1 59511U 24073A 26170.52017863 -.00001853 00000-0 -57809-4 0 9997
2 59511 43.0023 102.5668 0001535 266.9376 93.1300 15.27578355121756
Epoch: Jun 19, 2026 • Age: 18 hours

Current Status

Altitude 495.3 km
Velocity 7.62 km/s
Sub-Earth Point -43.13°S, 6.79°W
Launch Date Apr 17, 2024
Age 2.1 years
Type internet

Technical Details

Classification Payload
Mass 730.00 kg
Dry Mass 700.00 kg
Total Mass 730.00 kg
Length 0.30 m
Diameter 4.10 m
Span 29.00 m
Shape Box + pan
Manufacturer SPXS
Bus Type Starlink V2M
Phase Status In Orbit
Owner/State SPXS/US

Most Searched